• en France
  • Liste des pays
  • À 7 jours
  • Température de l'eau
  • Carte satellitaire
  • Carte météo
  • Widgets météo
  • user-avatar
    Se connecter

    Météo par heure à Pabna

    Ce jour, 20 Novembre, Lundi

    Heure Température Précipitation Vent Pression Humidité
    00:00 +26°C° 0 mm 1 m/s 757 mmHg 66%
    01:00 +26°C° 0 mm 1 m/s 757 mmHg 67%
    02:00 +26°C° 0 mm 1 m/s 756 mmHg 69%
    03:00 +25°C° 0 mm 1 m/s 756 mmHg 70%
    04:00 +25°C° 0 mm 1 m/s 756 mmHg 71%
    05:00 +25°C° 0 mm 1 m/s 757 mmHg 72%
    06:00 +22°C° 0 mm 0 m/s 757 mmHg 75%
    07:00 +26°C° 0 mm 1 m/s 758 mmHg 69%
    08:00 +27°C° 0 mm 1 m/s 758 mmHg 64%
    09:00 +29°C° 0 mm 1 m/s 759 mmHg 58%
    10:00 +30°C° 0 mm 2 m/s 758 mmHg 52%
    11:00 +31°C° 0 mm 2 m/s 758 mmHg 46%
    12:00 +33°C° 0 mm 3 m/s 758 mmHg 40%
    13:00 +34°C° 0 mm 3 m/s 757 mmHg 39%
    14:00 +34°C° 0 mm 4 m/s 756 mmHg 37%
    15:00 +34°C° 0 mm 4 m/s 756 mmHg 36%
    16:00 +33°C° 0 mm 4 m/s 756 mmHg 40%
    17:00 +30°C° 0 mm 3 m/s 755 mmHg 44%
    18:00 +29°C° 0 mm 3 m/s 755 mmHg 48%
    19:00 +28°C° 0 mm 2 m/s 756 mmHg 49%
    20:00 +28°C° 0 mm 2 m/s 756 mmHg 51%
    21:00 +27°C° 0 mm 2 m/s 756 mmHg 53%
    22:00 +27°C° 0 mm 2 m/s 756 mmHg 54%
    23:00 +26°C° 0 mm 1 m/s 756 mmHg 56%

    Demain, 21 Novembre, Mardi

    Heure Température Précipitation Vent Pression Humidité
    00:00 +26°C° 0 mm 1 m/s 756 mmHg 57%
    01:00 +25°C° 0 mm 1 m/s 756 mmHg 58%
    02:00 +25°C° 0 mm 1 m/s 756 mmHg 59%
    03:00 +25°C° 0 mm 1 m/s 756 mmHg 61%
    04:00 +24°C° 0 mm 2 m/s 756 mmHg 61%
    05:00 +24°C° 0 mm 2 m/s 757 mmHg 62%
    06:00 +23°C° 0 mm 2 m/s 757 mmHg 62%
    07:00 +25°C° 0 mm 3 m/s 758 mmHg 56%
    08:00 +26°C° 0 mm 4 m/s 758 mmHg 50%
    09:00 +27°C° 0 mm 4 m/s 759 mmHg 44%
    10:00 +29°C° 0 mm 4 m/s 759 mmHg 40%
    11:00 +30°C° 0 mm 4 m/s 758 mmHg 36%
    12:00 +32°C° 0 mm 4 m/s 758 mmHg 31%
    13:00 +32°C° 0 mm 4 m/s 757 mmHg 30%
    14:00 +32°C° 0 mm 4 m/s 756 mmHg 29%
    15:00 +32°C° 0 mm 4 m/s 756 mmHg 28%
    16:00 +30°C° 0 mm 3 m/s 756 mmHg 31%
    17:00 +28°C° 0 mm 3 m/s 756 mmHg 34%
    18:00 +26°C° 0 mm 3 m/s 756 mmHg 37%
    19:00 +25°C° 0 mm 3 m/s 756 mmHg 37%
    20:00 +24°C° 0 mm 3 m/s 757 mmHg 38%
    21:00 +24°C° 0 mm 3 m/s 757 mmHg 38%
    22:00 +22°C° 0 mm 3 m/s 757 mmHg 38%
    23:00 +21°C° 0 mm 3 m/s 757 mmHg 38%

    Après-demain, 22 Novembre, Mercredi

    Heure Température Précipitation Vent Pression Humidité
    00:00 +21°C° 0 mm 3 m/s 757 mmHg 38%
    01:00 +20°C° 0 mm 3 m/s 757 mmHg 38%
    02:00 +20°C° 0 mm 3 m/s 756 mmHg 39%
    03:00 +19°C° 0 mm 3 m/s 756 mmHg 39%
    04:00 +19°C° 0 mm 2 m/s 756 mmHg 40%
    05:00 +18°C° 0 mm 2 m/s 756 mmHg 41%
    06:00 +18°C° 0 mm 2 m/s 756 mmHg 41%
    07:00 +19°C° 0 mm 3 m/s 757 mmHg 40%
    08:00 +21°C° 0 mm 3 m/s 758 mmHg 38%
    09:00 +24°C° 0 mm 3 m/s 758 mmHg 36%
    10:00 +25°C° 0 mm 3 m/s 758 mmHg 36%
    11:00 +27°C° 0 mm 3 m/s 757 mmHg 37%
    12:00 +28°C° 0 mm 3 m/s 757 mmHg 37%
    13:00 +29°C° 0 mm 3 m/s 756 mmHg 36%
    14:00 +29°C° 0 mm 3 m/s 755 mmHg 36%
    15:00 +29°C° 0 mm 3 m/s 754 mmHg 35%
    16:00 +28°C° 0 mm 3 m/s 754 mmHg 40%
    17:00 +27°C° 0 mm 3 m/s 754 mmHg 44%
    18:00 +25°C° 0 mm 2 m/s 754 mmHg 49%
    19:00 +25°C° 0 mm 3 m/s 755 mmHg 50%
    20:00 +24°C° 0 mm 3 m/s 756 mmHg 51%
    21:00 +22°C° 0 mm 3 m/s 756 mmHg 53%
    22:00 +22°C° 0 mm 3 m/s 756 mmHg 52%
    23:00 +21°C° 0 mm 3 m/s 756 mmHg 51%

    23 Novembre, Jeudi

    Heure Température Précipitation Vent Pression Humidité
    00:00 +21°C° 0 mm 3 m/s 756 mmHg 50%
    01:00 +21°C° 0 mm 3 m/s 756 mmHg 50%
    02:00 +20°C° 0 mm 3 m/s 756 mmHg 49%
    03:00 +20°C° 0 mm 3 m/s 755 mmHg 49%
    04:00 +19°C° 0 mm 3 m/s 756 mmHg 49%
    05:00 +19°C° 0 mm 3 m/s 756 mmHg 49%
    06:00 +19°C° 0 mm 3 m/s 756 mmHg 50%
    07:00 +20°C° 0 mm 3 m/s 757 mmHg 49%
    08:00 +22°C° 0 mm 3 m/s 758 mmHg 49%
    09:00 +24°C° 0 mm 3 m/s 758 mmHg 48%
    10:00 +26°C° 0 mm 3 m/s 758 mmHg 47%
    11:00 +27°C° 0 mm 3 m/s 757 mmHg 46%
    12:00 +29°C° 0 mm 3 m/s 757 mmHg 44%
    13:00 +29°C° 0 mm 3 m/s 756 mmHg 43%
    14:00 +29°C° 0 mm 3 m/s 755 mmHg 41%
    15:00 +30°C° 0 mm 3 m/s 755 mmHg 40%
    16:00 +28°C° 0 mm 2 m/s 755 mmHg 44%
    17:00 +27°C° 0 mm 2 m/s 755 mmHg 48%
    18:00 +26°C° 0 mm 2 m/s 755 mmHg 53%
    19:00 +25°C° 0 mm 2 m/s 756 mmHg 55%
    20:00 +24°C° 0 mm 2 m/s 756 mmHg 57%
    21:00 +24°C° 0 mm 3 m/s 757 mmHg 59%
    22:00 +22°C° 0 mm 3 m/s 757 mmHg 61%
    23:00 +22°C° 0 mm 3 m/s 757 mmHg 63%

    24 Novembre, Vendredi

    Heure Température Précipitation Vent Pression Humidité
    00:00 +21°C° 0 mm 3 m/s 757 mmHg 64%
    01:00 +21°C° 0 mm 3 m/s 756 mmHg 65%
    02:00 +21°C° 0 mm 3 m/s 756 mmHg 65%
    03:00 +20°C° 0 mm 3 m/s 756 mmHg 65%
    04:00 +20°C° 0 mm 3 m/s 756 mmHg 64%
    05:00 +19°C° 0 mm 3 m/s 757 mmHg 63%
    06:00 +19°C° 0 mm 2 m/s 757 mmHg 63%
    07:00 +21°C° 0 mm 2 m/s 758 mmHg 59%
    08:00 +22°C° 0 mm 3 m/s 758 mmHg 55%
    09:00 +24°C° 0 mm 3 m/s 759 mmHg 52%
    10:00 +26°C° 0 mm 3 m/s 758 mmHg 48%
    11:00 +27°C° 0 mm 3 m/s 758 mmHg 45%
    12:00 +28°C° 0 mm 3 m/s 758 mmHg 41%
    13:00 +29°C° 0 mm 3 m/s 757 mmHg 40%
    14:00 +29°C° 0 mm 3 m/s 756 mmHg 38%
    15:00 +30°C° 0 mm 3 m/s 756 mmHg 36%
    16:00 +28°C° 0 mm 3 m/s 756 mmHg 40%
    17:00 +27°C° 0 mm 2 m/s 756 mmHg 44%
    18:00 +25°C° 0 mm 2 m/s 756 mmHg 48%
    19:00 +25°C° 0 mm 2 m/s 756 mmHg 50%
    20:00 +24°C° 0 mm 2 m/s 757 mmHg 52%
    21:00 +24°C° 0 mm 2 m/s 757 mmHg 54%
    22:00 +23°C° 0 mm 2 m/s 757 mmHg 55%
    23:00 +23°C° 0 mm 2 m/s 757 mmHg 56%

    25 Novembre, Samedi

    Heure Température Précipitation Vent Pression Humidité
    00:00 +21°C° 0 mm 2 m/s 757 mmHg 57%
    01:00 +21°C° 0 mm 2 m/s 757 mmHg 58%
    02:00 +20°C° 0 mm 2 m/s 757 mmHg 59%
    03:00 +20°C° 0 mm 2 m/s 757 mmHg 60%
    04:00 +20°C° 0 mm 2 m/s 758 mmHg 60%
    05:00 +19°C° 0 mm 2 m/s 758 mmHg 60%
    06:00 +19°C° 0 mm 2 m/s 758 mmHg 60%
    07:00 +21°C° 0 mm 2 m/s 759 mmHg 56%
    08:00 +23°C° 0 mm 2 m/s 760 mmHg 53%
    09:00 +24°C° 0 mm 3 m/s 760 mmHg 49%
    10:00 +26°C° 0 mm 3 m/s 760 mmHg 46%
    11:00 +27°C° 0 mm 3 m/s 759 mmHg 43%
    12:00 +28°C° 0 mm 3 m/s 759 mmHg 41%
    13:00 +29°C° 0 mm 2 m/s 758 mmHg 39%
    14:00 +29°C° 0 mm 2 m/s 757 mmHg 37%
    15:00 +30°C° 0 mm 2 m/s 757 mmHg 35%
    16:00 +28°C° 0 mm 2 m/s 757 mmHg 39%
    17:00 +27°C° 0 mm 2 m/s 757 mmHg 43%
    18:00 +25°C° 0 mm 2 m/s 757 mmHg 47%
    19:00 +25°C° 0 mm 2 m/s 758 mmHg 50%
    20:00 +24°C° 0 mm 2 m/s 758 mmHg 52%
    21:00 +24°C° 0 mm 2 m/s 759 mmHg 55%
    22:00 +23°C° 0 mm 2 m/s 759 mmHg 58%
    23:00 +23°C° 0 mm 2 m/s 759 mmHg 60%
    Voir plus